This is the latest recevied weather packets stored in our database for station/object KD8TSA. If no packets are shown the sender has not sent any weather packets the latest 10 day(s).
| Time | Temp. | Humidity | Pressure | Rain* | Wind** | Luminosity | Snow |
|---|---|---|---|---|---|---|---|
| 1778250165 | 14.44° C | 66% | 1013.9 hPa | 0 mm | - | 646 W/m² | - |
| 1778249862 | 13.89° C | 64% | 1013.9 hPa | 0 mm | - | 191 W/m² | - |
| 1778249559 | 14.44° C | 62% | 1013.9 hPa | 0 mm | - | 274 W/m² | - |
| 1778249256 | 13.33° C | 64% | 1013.8 hPa | 0 mm | - | 360 W/m² | - |
| 1778248953 | 13.89° C | 64% | 1013.8 hPa | 0 mm | - | 252 W/m² | - |
| 1778248649 | 13.89° C | 63% | 1014.1 hPa | 0 mm | - | 236 W/m² | - |
| 1778248041 | 13.89° C | 63% | 1014.1 hPa | 0 mm | - | 273 W/m² | - |
| 1778247739 | 13.89° C | 62% | 1014 hPa | 0 mm | - | 289 W/m² | - |
| 1778247435 | 15° C | 62% | 1014.1 hPa | 0 mm | - | 262 W/m² | - |
| 1778247133 | 14.44° C | 64% | 1014 hPa | 0 mm | - | 275 W/m² | - |
| 1778246831 | 13.89° C | 64% | 1013.9 hPa | 0 mm | - | 461 W/m² | - |
| 1778246528 | 13.33° C | 66% | 1014.1 hPa | 0 mm | - | 109 W/m² | - |
| 1778246223 | 12.78° C | 65% | 1014 hPa | 0 mm | - | 348 W/m² | - |
| 1778245920 | 12.22° C | 68% | 1014 hPa | 0 mm | - | 363 W/m² | - |
| 1778245616 | 11.67° C | 67% | 1014.3 hPa | 0 mm | - | 134 W/m² | - |
| 1778245314 | 11.67° C | 67% | 1014 hPa | 0 mm | - | 165 W/m² | - |
| 1778245009 | 12.22° C | 65% | 1014.1 hPa | 0 mm | - | 132 W/m² | - |
| 1778244706 | 12.78° C | 66% | 1014.1 hPa | 0 mm | - | 152 W/m² | - |
| 1778244404 | 12.78° C | 65% | 1014 hPa | 0 mm | - | 176 W/m² | - |
| 1778244101 | 12.22° C | 67% | 1014.3 hPa | 0 mm | - | 232 W/m² | - |
| 1778243800 | 12.22° C | 69% | 1013.8 hPa | 0 mm | - | 144 W/m² | - |
| 1778243497 | 11.67° C | 69% | 1014 hPa | 0 mm | - | 292 W/m² | - |
| 1778243193 | 11.11° C | 70% | 1013.9 hPa | 0 mm | - | 108 W/m² | - |
| 1778242890 | 11.11° C | 71% | 1014.1 hPa | 0 mm | - | 188 W/m² | - |
| 1778242588 | 11.11° C | 71% | 1014 hPa | 0 mm | - | 138 W/m² | - |
* Rain latest hour (hover to see other rain measurements)
** Current wind speed in m/s (hover to see current wind gust speed)